SCP
0 -0 -0 0 0 -0 -0 -0 0 0 0 0 0 0 0 0 0 0 0 0 0 0 0 0 0 -0 0 -0 -0 -0 -0 -0 -0 -0 -0 -0 -0 -0 -0 -0 -0 -0 -0 -0 -0 -0 -0 -0 -0
0 0 0 0 -0 -0 -0 0 0 0 0 0 0 0 0 0 0 0 0 -0 0 0 0 0 0 0 -0 -0 -0 -0 -0 -0 -0 -0 -0 -0 -0 -0 -0 -0 -0 -0 -0 -0 -0 -0 -0 -0 -0
0 0 0 0 0 -0 -0 0 0 0 0 0 -0 0 0 0 0 0 0 0 0 0 0 0 0 0 0 0 0 0 -0 -0 -0 -0 -0 -0 -0 -0 -0 -0 -0 -0 -0 -0 -0 -0 -0 -0 -0
0 0 0 0 -0 0 0 0 0 0 0 -0 -0 -0 0 0 0 0 0 0 -0 0 0 0 -0 -0 0 0 0 0 -0 -0 -0 -0 -0 -0 -0 -0 -0 -0 -0 -0 -0 -0 -0 -0 -0 -0 -0
0 0 0 0 0 0 0 0 0 0 0 -0 -0 0 0 -0 -0 0 0 0 0 0 0 0 -0 -0 -0 -0 -0 0 0 -0 -0 -0 -0 -0 -0 -0 -0 -0 -0 -0 -0 -0 -0 -0 -0 -0 -0
0 0 0 -0 0 0 0 0 -0 -0 0 0 -0 0 0 -0 0 0 0 0 0 -0 0 0 -0 -0 -0 -0 -0 -0 -0 -0 -0 -0 -0 -0 -0 -0 -0 -0 -0 -0 -0 -0 -0 -0 -0 -0 -0
0 0 0 0 0 0 0 0 0 0 0 -0 -0 0 0 0 0 0 0 0 -0 0 -0 0 0 -0 -0 -0 -0 -0 -0 -0 -0 -0 -0 -0 -0 -0 -0 -0 -0 -0 -0 -0 -0 -0 -0 -0 -0
0 0 0 0 -0 0 0 0 -0 0 0 0 0 0 -0 -0 -0 0 0 0 0 -0 -0 -0 -0 -0 0 0 -0 -0 -0 -0 -0 -0 -0 -0 -0 -0 -0 -0 -0 -0 -0 -0 -0 -0 -0 -0 -0
0 0 0 0 0 0 0 0 -0 -0 -0 -0 -0 -0 0 -0 -0 -0 0 0 0 -0 -0 -0 -0 -0 0 0 0 -0 -0 -0 -0 -0 -0 0 0 0 -0 0 -0 0 -0 -0 -0 -0 -0 -0 0
0 0 0 0 0 0 0 0 -0 0 0 0 0 0 -0 -0 -0 -0 -0 -0 -0 -0 -0 -0 -0 -0 -0 0 0 0 0 0 0 0 0 0 0 0 0 0 0 0 0 0 0 0 0 0 0
0 0 0 0 0 0 0 0 0 0 0 0 -0 0 0 -0 -0 -0 -0 -0 -0 -0 -0 -0 -0 -0 -0 0 0 0 0 0 0 0 0 0 0 0 0 0 0 0 0 0 0 0 0 0 0
0 0 0 0 0 0 0 0 0 0 0 0 0 0 0 -0 -0 -0 -0 -0 -0 -0 -0 -0 -0 -0 -0 0 0 0 0 0 0 0 0 0 0 0 0 0 0 0 0 0 0 0 0 0 0
0 0 0 0 0 0 0 0 0 0 -0 0 0 0 0 0 -0 0 0 0 0 -0 -0 -0 -0 -0 0 0 0 0 0 0 0 0 0 0 0 0 0 0 0 0 0 0 0 0 0 0 0
0 0 0 0 0 0 0 0 0 0 0 0 0 0 0 0 0 0 0 0 -0 -0 -0 -0 -0 0 0 0 -0 0 0 0 0 0 0 0 0 0 0 0 0 0 0 0 0 0 0 0 0
0 0 0 0 0 0 0 0 0 0 0 0 0 0 0 0 0 0 0 0 0 0 0 -0 -0 -0 -0 -0 0 0 0 0 0 0 0 0 0 0 0 0 0 0 0 0 0 0 0 0 0
0 0 0 0 0 0 0 0 0 0 0 0 0 0 0 0 0 0 0 0 0 0 0 -0 0 -0 -0 -0 0 0 0 0 0 0 0 0 0 0 0 0 0 0 0 0 0 0 0 0 0
0 0 0 0 0 0 0 0 0 0 0 0 0 0 0 0 0 0 0 0 0 0 0 0 0 -0 -0 -0 0 0 0 0 0 0 0 0 0 0 0 0 0 0 0 0 0 0 0 0 0
0 0 0 0 0 0 0 0 0 0 0 0 0 0 0 0 0 0 0 0 0 0 0 0 0 0 0 0 0 0 0 0 0 0 0 0 0 0 0 0 0 0 0 0 0 0 0 0 0
0 0 0 0 0 0 0 0 0 0 0 0 0 0 0 0 0 0 0 0 0 0 0 0 0 0 0 0 0 0 0 0 0 0 0 0 0 0 0 0 0 0 0 0 0 0 0 0 0
0 0 0 0 0 0 0 0 0 0 0 0 0 0 0 0 0 0 0 0 0 0 0 0 0 0 0 0 0 0 0 0 0 0 0 0 0 0 0 0 0 0 0 0 0 0 0 0 0
0 0 0 0 0 0 0 0 0 0 0 0 0 0 0 0 0 0 0 0 0 0 0 0 0 0 0 0 0 0 0 0 0 0 0 0 0 0 0 0 0 0 0 0 0 0 0 0 0
0 0 0 0 0 0 0 -0 0 0 0 0 0 0 0 0 0 0 0 0 0 0 0 0 0 0 0 0 0 0 0 0 0 0 0 0 0 0 0 0 0 0 0 0 0 0 0 0 0
0 0 0 0 0 0 0 0 -0 0 0 0 0 0 0 0 0 0 0 0 0 0 0 0 0 0 0 0 0 0 0 0 0 0 0 0 0 0 0 0 0 0 0 0 0 0 0 0 0
0 0 0 0 0 0 0 0 0 -0 0 0 0 0 0 0 0 0 0 0 0 0 0 0 0 0 0 0 0 0 0 0 0 0 0 0 0 0 0 0 0 0 0 0 0 0 0 0 0
0 0 0 0 0 0 0 0 0 0 0 0 0 0 0 0 0 0 0 0 0 0 0 0 0 0 0 0 0 0 0 0 0 0 0 0 0 0 0 0 0 0 0 0 0 0 0 0 0
0 0 0 0 0 0 0 0 0 0 0 0 0 0 0 0 0 0 0 0 0 0 0 0 0 0 0 0 0 0 0 0 0 0 0 0 0 0 0 0 0 0 0 0 0 0 0 0 0
0 0 0 0 0 0 0 0 0 0 0 0 0 0 0 0 0 0 0 0 0 0 0 0 0 0 0 0 0 0 0 0 0 0 0 0 0 0 0 0 0 0 0 0 0 0 0 0 0
0 0 0 0 0 0 0 0 0 0 0 0 0 0 0 0 0 0 0 0 0 0 0 0 0 0 0 0 0 0 0 0 0 0 0 0 0 0 0 0 0 0 0 0 0 0 0 0 0
0 0 0 0 0 0 0 0 0 0 0 0 0 0 0 0 0 0 0 0 0 0 0 0 0 0 0 0 0 0 0 0 0 0 0 0 0 0 0 0 0 0 0 0 0 0 0 0 0
0 0 0 0 0 0 0 0 0 0 0 0 0 0 0 0 0 0 0 0 0 0 0 0 0 0 0 0 0 0 0 0 0 0 0 0 0 0 0 0 0 0 0 0 0 0 0 0 0
Wind_Speed_500mb
13 12 9 3 7 10 4 7 2 5 3 6 15 9 13 9 8 7 20 43 46 42 39 32 26 24 20 18 17 18 19 18 19 19 18 19 20 22 26 27 25 26 29 32 30 28 26 25 23
13 10 6 5 8 6 8 4 7 9 11 28 21 14 6 3 9 9 39 37 46 42 38 32 29 25 22 19 18 17 17 16 17 16 18 20 16 19 21 23 20 23 27 30 31 28 29 26 25
12 10 4 8 7 9 9 9 11 7 27 7 8 5 8 9 10 27 37 38 46 42 37 33 30 26 23 20 18 17 16 16 16 16 17 22 16 12 17 19 19 17 20 25 27 25 26 26 26
12 7 10 8 8 5 5 10 13 17 6 6 11 7 6 7 14 30 38 36 45 42 36 33 30 27 24 21 19 17 16 15 15 15 16 21 18 8 12 15 17 12 14 23 22 21 24 25 26
10 6 8 5 4 2 4 10 25 8 9 10 11 6 5 10 18 22 43 39 44 43 38 33 30 27 24 20 17 15 14 14 14 14 16 19 17 11 6 9 13 9 9 15 17 18 21 21 23
7 7 8 4 6 4 3 16 12 9 9 12 8 13 7 17 16 26 34 35 38 40 39 35 31 28 25 20 17 16 14 13 12 12 14 16 15 8 4 7 9 5 6 12 13 12 15 18 20
11 8 9 9 7 3 8 20 10 14 15 11 13 10 5 24 20 21 25 36 34 38 37 37 34 31 27 22 19 17 15 12 11 10 11 11 10 5 3 3 5 3 4 8 10 11 12 15 17
8 10 8 7 10 8 12 21 7 18 12 13 18 7 6 23 28 25 29 36 34 37 40 40 38 35 32 27 22 18 15 13 12 10 9 7 5 3 2 0 2 5 4 7 9 11 12 13 14
9 9 5 11 13 7 18 8 11 7 13 16 21 10 8 21 32 33 38 41 40 41 41 45 43 40 36 32 28 25 21 17 15 13 11 8 6 4 4 3 3 6 6 7 10 11 11 10 9
9 8 15 9 8 9 19 9 18 8 9 13 19 20 14 24 35 36 45 49 50 47 45 46 47 44 41 38 35 32 29 25 22 19 16 13 10 7 8 7 6 7 7 7 9 9 9 7 4
7 10 10 7 6 14 18 11 13 13 7 21 33 28 24 32 39 37 38 39 42 46 46 47 48 45 45 44 42 40 36 32 28 25 21 18 14 9 6 9 9 8 7 8 8 7 6 5 3
7 4 12 11 8 8 10 9 6 21 9 6 23 21 29 35 42 41 41 38 42 44 44 44 46 44 44 46 46 44 42 38 34 30 27 24 19 14 8 6 8 8 8 7 7 6 5 3 3
6 7 9 9 7 4 5 3 9 24 24 26 14 22 31 36 37 39 39 39 40 43 43 45 44 44 39 42 45 49 48 45 39 37 33 30 25 23 15 8 11 10 8 8 7 4 5 3 3
10 9 6 5 3 1 1 2 4 4 2 25 28 27 25 33 32 41 47 47 47 44 46 45 47 46 44 45 41 42 50 50 46 44 40 36 33 30 27 19 14 16 12 9 10 10 10 9 9
14 7 5 4 5 1 2 8 17 26 18 15 18 35 31 35 41 44 40 44 45 46 49 51 50 52 54 52 49 46 43 46 51 49 47 43 40 37 37 31 24 19 22 17 17 17 18 18 17
10 9 5 5 7 2 7 16 8 7 15 17 15 15 18 29 40 42 44 49 50 52 55 54 57 60 61 63 60 56 51 48 47 43 49 49 46 44 42 42 33 28 28 26 25 28 31 30 25
12 6 6 10 9 3 5 12 6 2 3 8 10 13 20 25 32 31 31 40 47 51 55 59 63 65 64 66 69 65 59 56 53 50 45 48 49 49 49 47 44 41 39 40 43 35 36 40 39
11 6 5 7 2 2 2 18 18 26 20 25 36 42 42 45 50 45 45 47 48 49 54 58 62 65 67 67 70 72 71 66 63 61 54 49 52 53 54 54 50 53 54 53 51 52 48 46 44
13 9 7 5 3 4 11 14 23 49 43 43 50 54 56 59 56 54 47 54 61 55 56 55 60 62 67 72 76 80 80 76 74 71 63 58 55 54 57 57 58 61 59 58 58 59 58 55 53
7 10 6 3 4 5 9 21 21 28 36 51 56 64 64 52 32 14 21 23 36 55 52 54 56 61 64 69 71 77 76 78 77 73 73 64 61 58 59 61 65 66 63 64 64 66 67 63 62
4 11 8 5 3 5 11 16 11 11 18 31 43 37 40 41 37 30 28 28 23 34 47 52 54 56 59 68 73 75 79 83 81 81 78 75 69 66 59 63 61 68 74 70 73 73 73 74 74
9 11 8 8 6 6 5 10 12 10 20 14 27 19 24 23 16 8 6 10 21 25 27 36 44 46 51 62 75 77 76 77 74 79 77 77 68 70 59 56 65 62 68 76 77 84 84 88 84
7 11 10 5 8 5 6 2 13 5 13 15 5 21 21 17 14 12 13 12 5 9 12 17 26 37 43 50 63 71 76 75 74 70 68 66 67 67 60 63 65 67 71 71 78 84 89 91 99
18 13 13 9 5 4 12 12 10 9 8 4 11 21 18 11 9 9 10 11 7 3 4 10 15 22 30 37 46 55 60 64 66 65 66 61 55 51 53 59 62 63 68 73 77 77 84 88 97
7 13 3 5 4 11 4 2 16 11 9 5 11 17 16 9 7 7 7 7 6 3 3 4 6 8 10 14 22 30 37 44 50 51 53 53 50 52 53 55 56 61 67 71 69 79 88 80 99
14 14 11 14 8 7 5 12 11 4 2 5 5 10 18 18 13 8 3 4 10 12 15 15 11 5 5 7 12 17 22 27 33 37 41 43 43 43 45 50 54 56 60 66 69 76 78 81 82
11 11 11 14 6 7 8 13 17 6 7 13 16 23 28 27 20 13 7 4 5 7 6 4 5 5 8 10 13 16 18 20 23 25 28 31 34 37 39 42 46 51 55 61 68 75 81 83 83
11 15 7 4 6 7 8 9 11 9 14 6 6 19 23 27 27 21 16 12 10 8 7 7 9 10 12 12 12 11 11 10 9 11 14 19 24 28 33 36 40 46 50 57 65 74 80 85 90
6 6 6 10 10 12 2 12 12 11 15 15 8 14 19 19 24 26 25 24 22 19 18 20 20 23 19 16 12 5 2 3 7 12 18 24 31 34 39 42 45 49 52 53 58 66 73 79 82
3 16 15 10 10 5 6 17 5 16 20 19 15 17 19 21 22 24 26 25 25 23 19 16 17 16 13 9 5 7 9 13 18 22 28 33 40 46 49 53 56 58 61 61 63 64 65 71 74
Wind_Direction_500mb
249 234 224 236 56 68 183 231 110 144 172 180 142 157 175 113 163 210 155 167 171 166 160 158 155 148 138 120 108 100 101 106 112 117 108 101 91 81 73 72 83 96 96 89 97 95 95 100 105
225 208 189 106 92 85 258 249 201 197 144 116 108 106 108 139 130 153 152 167 173 171 164 163 159 153 144 129 118 110 105 100 102 108 104 106 92 86 75 70 85 94 97 93 100 96 95 92 94
206 191 153 93 113 169 188 200 185 158 152 132 112 87 119 141 145 158 164 167 172 175 168 166 163 158 150 138 128 122 115 110 106 105 108 114 110 87 77 67 84 91 97 96 101 94 85 82 83
178 138 68 90 202 228 188 173 169 142 182 161 141 84 121 144 154 163 175 174 173 177 175 173 169 164 158 149 141 135 127 115 108 108 114 127 119 128 86 66 68 86 91 95 108 83 82 79 83
148 96 64 87 278 283 248 169 162 138 149 146 143 184 145 171 149 165 174 176 179 180 181 181 178 174 169 160 152 145 137 131 124 120 121 129 123 161 110 70 69 92 89 92 96 88 78 75 83
105 91 72 170 256 345 74 167 173 134 165 152 137 149 164 171 154 169 181 180 181 185 186 188 186 185 183 178 168 162 156 150 141 133 131 136 147 159 84 48 48 83 93 101 105 88 78 77 87
116 85 176 161 189 43 180 170 178 165 166 200 160 130 213 190 171 174 178 186 182 190 196 195 195 193 194 193 185 180 175 167 159 149 148 153 158 153 112 57 40 137 116 122 115 109 94 90 92
119 93 118 203 180 218 178 172 222 169 189 173 173 187 250 195 185 173 170 183 190 194 203 205 204 203 203 202 201 199 193 185 180 177 176 175 172 169 167 127 83 162 158 140 123 113 100 92 91
124 67 170 199 152 198 158 160 166 199 169 181 194 207 215 185 183 176 176 183 193 198 208 211 212 210 210 211 210 208 208 207 204 201 202 202 209 234 252 261 177 179 172 147 129 122 113 102 95
98 116 210 197 193 184 168 176 167 162 180 209 212 212 216 197 193 189 189 190 195 202 207 212 215 216 216 216 217 217 216 216 216 215 217 216 211 234 254 249 217 194 182 154 142 138 131 117 97
132 179 188 217 181 167 154 140 170 163 235 217 219 214 211 202 203 205 204 208 206 205 211 213 215 219 223 224 223 223 224 223 222 221 221 219 225 237 252 245 228 209 184 166 157 157 153 141 127
126 180 165 170 168 154 149 148 193 211 219 225 231 225 219 210 211 216 213 213 214 214 216 218 219 222 227 230 231 232 230 230 228 229 228 227 231 222 236 226 219 207 180 181 181 168 162 160 153
132 202 171 176 176 145 172 187 246 256 245 241 235 218 219 222 225 225 227 224 224 223 223 222 222 223 225 228 235 237 237 236 236 233 233 231 230 225 229 214 206 208 207 197 195 190 203 220 231
146 154 128 180 179 319 58 301 322 249 195 228 223 226 222 226 236 230 228 229 229 231 232 231 231 232 234 235 240 244 243 242 239 237 236 234 232 230 226 225 221 212 214 217 221 234 246 249 255
109 107 2 213 188 171 193 283 235 245 256 267 228 235 236 240 235 239 245 245 243 242 240 236 237 238 240 242 245 246 251 247 244 241 239 236 235 234 230 230 229 225 220 230 241 251 255 257 256
77 50 104 293 155 181 134 263 273 284 234 240 224 227 237 246 250 249 248 247 246 245 244 244 241 240 241 243 246 248 252 254 250 248 241 239 237 237 236 234 238 240 243 250 255 268 266 261 261
20 172 188 310 205 117 155 261 278 192 197 209 212 252 264 261 255 249 254 256 249 248 246 245 244 243 243 243 244 246 251 255 256 252 247 241 241 240 240 239 241 241 246 248 249 246 258 260 261
182 156 223 236 253 90 239 267 286 276 274 272 281 280 275 269 265 265 265 262 254 247 245 245 245 246 245 244 244 245 248 250 253 254 252 248 245 243 244 243 246 246 243 243 247 249 248 249 249
136 127 165 247 2 209 234 268 276 284 287 273 271 276 279 277 280 278 274 261 249 242 238 239 241 242 243 241 240 241 244 246 249 251 254 253 250 246 248 248 247 249 251 254 252 252 253 253 252
125 121 204 303 26 179 355 286 268 269 265 271 276 279 283 291 286 252 281 287 255 238 238 238 242 242 243 245 246 245 248 249 253 255 257 256 252 251 249 253 252 251 254 256 256 255 253 253 258
171 155 181 180 355 61 346 297 307 292 273 277 269 282 289 290 290 296 281 240 247 237 238 243 246 247 247 244 244 244 245 247 249 253 254 258 257 255 255 256 257 262 253 255 257 258 256 252 253
169 191 139 143 94 236 25 284 303 307 302 279 309 330 321 297 275 297 328 231 239 235 234 243 243 242 244 242 241 243 245 247 253 252 255 261 259 260 264 263 256 265 271 256 261 259 257 250 253
194 117 123 92 97 64 326 52 268 341 281 287 338 357 16 57 85 71 66 74 143 199 230 253 248 239 240 240 240 242 245 251 256 258 257 260 262 263 265 264 259 266 265 265 268 268 261 261 253
151 83 55 55 85 316 222 175 275 208 211 276 314 346 8 44 62 53 61 66 71 104 241 268 264 248 243 241 239 241 245 251 256 260 263 268 272 274 269 270 271 271 271 271 271 275 270 267 263
83 90 5 354 359 227 1 161 251 241 231 231 305 340 11 44 75 83 84 68 59 25 330 308 310 294 268 248 240 241 245 250 257 263 269 271 273 268 270 271 272 271 270 270 274 271 269 271 269
185 163 156 196 199 245 70 234 247 183 32 165 123 61 65 80 83 94 86 351 334 325 311 305 289 263 222 201 214 230 241 248 255 261 264 267 269 266 266 266 268 270 270 268 273 274 275 274 273
195 209 157 106 15 48 215 283 309 58 104 83 90 88 77 74 70 61 38 356 314 291 301 305 261 210 178 191 203 212 223 234 242 245 251 257 263 268 267 264 263 264 263 265 269 271 273 273 274
160 159 84 14 149 241 267 269 229 184 191 184 89 84 80 73 71 68 64 53 48 60 79 87 107 134 129 131 137 155 177 187 211 243 262 271 275 279 279 276 272 269 266 264 265 268 270 271 273
132 185 65 127 156 176 220 253 223 180 164 169 141 91 79 72 65 61 60 65 69 75 83 84 87 89 90 98 97 94 127 291 297 296 294 292 293 294 294 294 291 288 284 278 273 268 267 268 271
222 198 160 157 216 241 161 253 318 149 152 152 129 97 82 85 81 76 76 79 80 80 90 87 75 66 61 58 26 320 296 286 286 288 291 292 294 294 293 291 291 290 287 285 280 276 271 269 268
Wind_Speed_850mb
13 12 9 3 7 10 4 7 2 5 3 6 15 9 13 9 8 7 20 43 46 42 39 32 26 24 20 18 17 18 19 18 19 19 18 19 20 22 26 27 25 26 29 32 30 28 26 25 23
13 10 6 5 8 6 8 4 7 9 11 28 21 14 6 3 9 9 39 37 46 42 38 32 29 25 22 19 18 17 17 16 17 16 18 20 16 19 21 23 20 23 27 30 31 28 29 26 25
12 10 4 8 7 9 9 9 11 7 27 7 8 5 8 9 10 27 37 38 46 42 37 33 30 26 23 20 18 17 16 16 16 16 17 22 16 12 17 19 19 17 20 25 27 25 26 26 26
12 7 10 8 8 5 5 10 13 17 6 6 11 7 6 7 14 30 38 36 45 42 36 33 30 27 24 21 19 17 16 15 15 15 16 21 18 8 12 15 17 12 14 23 22 21 24 25 26
10 6 8 5 4 2 4 10 25 8 9 10 11 6 5 10 18 22 43 39 44 43 38 33 30 27 24 20 17 15 14 14 14 14 16 19 17 11 6 9 13 9 9 15 17 18 21 21 23
7 7 8 4 6 4 3 16 12 9 9 12 8 13 7 17 16 26 34 35 38 40 39 35 31 28 25 20 17 16 14 13 12 12 14 16 15 8 4 7 9 5 6 12 13 12 15 18 20
11 8 9 9 7 3 8 20 10 14 15 11 13 10 5 24 20 21 25 36 34 38 37 37 34 31 27 22 19 17 15 12 11 10 11 11 10 5 3 3 5 3 4 8 10 11 12 15 17
8 10 8 7 10 8 12 21 7 18 12 13 18 7 6 23 28 25 29 36 34 37 40 40 38 35 32 27 22 18 15 13 12 10 9 7 5 3 2 0 2 5 4 7 9 11 12 13 14
9 9 5 11 13 7 18 8 11 7 13 16 21 10 8 21 32 33 38 41 40 41 41 45 43 40 36 32 28 25 21 17 15 13 11 8 6 4 4 3 3 6 6 7 10 11 11 10 9
9 8 15 9 8 9 19 9 18 8 9 13 19 20 14 24 35 36 45 49 50 47 45 46 47 44 41 38 35 32 29 25 22 19 16 13 10 7 8 7 6 7 7 7 9 9 9 7 4
7 10 10 7 6 14 18 11 13 13 7 21 33 28 24 32 39 37 38 39 42 46 46 47 48 45 45 44 42 40 36 32 28 25 21 18 14 9 6 9 9 8 7 8 8 7 6 5 3
7 4 12 11 8 8 10 9 6 21 9 6 23 21 29 35 42 41 41 38 42 44 44 44 46 44 44 46 46 44 42 38 34 30 27 24 19 14 8 6 8 8 8 7 7 6 5 3 3
6 7 9 9 7 4 5 3 9 24 24 26 14 22 31 36 37 39 39 39 40 43 43 45 44 44 39 42 45 49 48 45 39 37 33 30 25 23 15 8 11 10 8 8 7 4 5 3 3
10 9 6 5 3 1 1 2 4 4 2 25 28 27 25 33 32 41 47 47 47 44 46 45 47 46 44 45 41 42 50 50 46 44 40 36 33 30 27 19 14 16 12 9 10 10 10 9 9
14 7 5 4 5 1 2 8 17 26 18 15 18 35 31 35 41 44 40 44 45 46 49 51 50 52 54 52 49 46 43 46 51 49 47 43 40 37 37 31 24 19 22 17 17 17 18 18 17
10 9 5 5 7 2 7 16 8 7 15 17 15 15 18 29 40 42 44 49 50 52 55 54 57 60 61 63 60 56 51 48 47 43 49 49 46 44 42 42 33 28 28 26 25 28 31 30 25
12 6 6 10 9 3 5 12 6 2 3 8 10 13 20 25 32 31 31 40 47 51 55 59 63 65 64 66 69 65 59 56 53 50 45 48 49 49 49 47 44 41 39 40 43 35 36 40 39
11 6 5 7 2 2 2 18 18 26 20 25 36 42 42 45 50 45 45 47 48 49 54 58 62 65 67 67 70 72 71 66 63 61 54 49 52 53 54 54 50 53 54 53 51 52 48 46 44
13 9 7 5 3 4 11 14 23 49 43 43 50 54 56 59 56 54 47 54 61 55 56 55 60 62 67 72 76 80 80 76 74 71 63 58 55 54 57 57 58 61 59 58 58 59 58 55 53
7 10 6 3 4 5 9 21 21 28 36 51 56 64 64 52 32 14 21 23 36 55 52 54 56 61 64 69 71 77 76 78 77 73 73 64 61 58 59 61 65 66 63 64 64 66 67 63 62
4 11 8 5 3 5 11 16 11 11 18 31 43 37 40 41 37 30 28 28 23 34 47 52 54 56 59 68 73 75 79 83 81 81 78 75 69 66 59 63 61 68 74 70 73 73 73 74 74
9 11 8 8 6 6 5 10 12 10 20 14 27 19 24 23 16 8 6 10 21 25 27 36 44 46 51 62 75 77 76 77 74 79 77 77 68 70 59 56 65 62 68 76 77 84 84 88 84
7 11 10 5 8 5 6 2 13 5 13 15 5 21 21 17 14 12 13 12 5 9 12 17 26 37 43 50 63 71 76 75 74 70 68 66 67 67 60 63 65 67 71 71 78 84 89 91 99
18 13 13 9 5 4 12 12 10 9 8 4 11 21 18 11 9 9 10 11 7 3 4 10 15 22 30 37 46 55 60 64 66 65 66 61 55 51 53 59 62 63 68 73 77 77 84 88 97
7 13 3 5 4 11 4 2 16 11 9 5 11 17 16 9 7 7 7 7 6 3 3 4 6 8 10 14 22 30 37 44 50 51 53 53 50 52 53 55 56 61 67 71 69 79 88 80 99
14 14 11 14 8 7 5 12 11 4 2 5 5 10 18 18 13 8 3 4 10 12 15 15 11 5 5 7 12 17 22 27 33 37 41 43 43 43 45 50 54 56 60 66 69 76 78 81 82
11 11 11 14 6 7 8 13 17 6 7 13 16 23 28 27 20 13 7 4 5 7 6 4 5 5 8 10 13 16 18 20 23 25 28 31 34 37 39 42 46 51 55 61 68 75 81 83 83
11 15 7 4 6 7 8 9 11 9 14 6 6 19 23 27 27 21 16 12 10 8 7 7 9 10 12 12 12 11 11 10 9 11 14 19 24 28 33 36 40 46 50 57 65 74 80 85 90
6 6 6 10 10 12 2 12 12 11 15 15 8 14 19 19 24 26 25 24 22 19 18 20 20 23 19 16 12 5 2 3 7 12 18 24 31 34 39 42 45 49 52 53 58 66 73 79 82
3 16 15 10 10 5 6 17 5 16 20 19 15 17 19 21 22 24 26 25 25 23 19 16 17 16 13 9 5 7 9 13 18 22 28 33 40 46 49 53 56 58 61 61 63 64 65 71 74
Wind_Direction_850mb
249 234 224 236 56 68 183 231 110 144 172 180 142 157 175 113 163 210 155 167 171 166 160 158 155 148 138 120 108 100 101 106 112 117 108 101 91 81 73 72 83 96 96 89 97 95 95 100 105
225 208 189 106 92 85 258 249 201 197 144 116 108 106 108 139 130 153 152 167 173 171 164 163 159 153 144 129 118 110 105 100 102 108 104 106 92 86 75 70 85 94 97 93 100 96 95 92 94
206 191 153 93 113 169 188 200 185 158 152 132 112 87 119 141 145 158 164 167 172 175 168 166 163 158 150 138 128 122 115 110 106 105 108 114 110 87 77 67 84 91 97 96 101 94 85 82 83
178 138 68 90 202 228 188 173 169 142 182 161 141 84 121 144 154 163 175 174 173 177 175 173 169 164 158 149 141 135 127 115 108 108 114 127 119 128 86 66 68 86 91 95 108 83 82 79 83
148 96 64 87 278 283 248 169 162 138 149 146 143 184 145 171 149 165 174 176 179 180 181 181 178 174 169 160 152 145 137 131 124 120 121 129 123 161 110 70 69 92 89 92 96 88 78 75 83
105 91 72 170 256 345 74 167 173 134 165 152 137 149 164 171 154 169 181 180 181 185 186 188 186 185 183 178 168 162 156 150 141 133 131 136 147 159 84 48 48 83 93 101 105 88 78 77 87
116 85 176 161 189 43 180 170 178 165 166 200 160 130 213 190 171 174 178 186 182 190 196 195 195 193 194 193 185 180 175 167 159 149 148 153 158 153 112 57 40 137 116 122 115 109 94 90 92
119 93 118 203 180 218 178 172 222 169 189 173 173 187 250 195 185 173 170 183 190 194 203 205 204 203 203 202 201 199 193 185 180 177 176 175 172 169 167 127 83 162 158 140 123 113 100 92 91
124 67 170 199 152 198 158 160 166 199 169 181 194 207 215 185 183 176 176 183 193 198 208 211 212 210 210 211 210 208 208 207 204 201 202 202 209 234 252 261 177 179 172 147 129 122 113 102 95
98 116 210 197 193 184 168 176 167 162 180 209 212 212 216 197 193 189 189 190 195 202 207 212 215 216 216 216 217 217 216 216 216 215 217 216 211 234 254 249 217 194 182 154 142 138 131 117 97
132 179 188 217 181 167 154 140 170 163 235 217 219 214 211 202 203 205 204 208 206 205 211 213 215 219 223 224 223 223 224 223 222 221 221 219 225 237 252 245 228 209 184 166 157 157 153 141 127
126 180 165 170 168 154 149 148 193 211 219 225 231 225 219 210 211 216 213 213 214 214 216 218 219 222 227 230 231 232 230 230 228 229 228 227 231 222 236 226 219 207 180 181 181 168 162 160 153
132 202 171 176 176 145 172 187 246 256 245 241 235 218 219 222 225 225 227 224 224 223 223 222 222 223 225 228 235 237 237 236 236 233 233 231 230 225 229 214 206 208 207 197 195 190 203 220 231
146 154 128 180 179 319 58 301 322 249 195 228 223 226 222 226 236 230 228 229 229 231 232 231 231 232 234 235 240 244 243 242 239 237 236 234 232 230 226 225 221 212 214 217 221 234 246 249 255
109 107 2 213 188 171 193 283 235 245 256 267 228 235 236 240 235 239 245 245 243 242 240 236 237 238 240 242 245 246 251 247 244 241 239 236 235 234 230 230 229 225 220 230 241 251 255 257 256
77 50 104 293 155 181 134 263 273 284 234 240 224 227 237 246 250 249 248 247 246 245 244 244 241 240 241 243 246 248 252 254 250 248 241 239 237 237 236 234 238 240 243 250 255 268 266 261 261
20 172 188 310 205 117 155 261 278 192 197 209 212 252 264 261 255 249 254 256 249 248 246 245 244 243 243 243 244 246 251 255 256 252 247 241 241 240 240 239 241 241 246 248 249 246 258 260 261
182 156 223 236 253 90 239 267 286 276 274 272 281 280 275 269 265 265 265 262 254 247 245 245 245 246 245 244 244 245 248 250 253 254 252 248 245 243 244 243 246 246 243 243 247 249 248 249 249
136 127 165 247 2 209 234 268 276 284 287 273 271 276 279 277 280 278 274 261 249 242 238 239 241 242 243 241 240 241 244 246 249 251 254 253 250 246 248 248 247 249 251 254 252 252 253 253 252
125 121 204 303 26 179 355 286 268 269 265 271 276 279 283 291 286 252 281 287 255 238 238 238 242 242 243 245 246 245 248 249 253 255 257 256 252 251 249 253 252 251 254 256 256 255 253 253 258
171 155 181 180 355 61 346 297 307 292 273 277 269 282 289 290 290 296 281 240 247 237 238 243 246 247 247 244 244 244 245 247 249 253 254 258 257 255 255 256 257 262 253 255 257 258 256 252 253
169 191 139 143 94 236 25 284 303 307 302 279 309 330 321 297 275 297 328 231 239 235 234 243 243 242 244 242 241 243 245 247 253 252 255 261 259 260 264 263 256 265 271 256 261 259 257 250 253
194 117 123 92 97 64 326 52 268 341 281 287 338 357 16 57 85 71 66 74 143 199 230 253 248 239 240 240 240 242 245 251 256 258 257 260 262 263 265 264 259 266 265 265 268 268 261 261 253
151 83 55 55 85 316 222 175 275 208 211 276 314 346 8 44 62 53 61 66 71 104 241 268 264 248 243 241 239 241 245 251 256 260 263 268 272 274 269 270 271 271 271 271 271 275 270 267 263
83 90 5 354 359 227 1 161 251 241 231 231 305 340 11 44 75 83 84 68 59 25 330 308 310 294 268 248 240 241 245 250 257 263 269 271 273 268 270 271 272 271 270 270 274 271 269 271 269
185 163 156 196 199 245 70 234 247 183 32 165 123 61 65 80 83 94 86 351 334 325 311 305 289 263 222 201 214 230 241 248 255 261 264 267 269 266 266 266 268 270 270 268 273 274 275 274 273
195 209 157 106 15 48 215 283 309 58 104 83 90 88 77 74 70 61 38 356 314 291 301 305 261 210 178 191 203 212 223 234 242 245 251 257 263 268 267 264 263 264 263 265 269 271 273 273 274
160 159 84 14 149 241 267 269 229 184 191 184 89 84 80 73 71 68 64 53 48 60 79 87 107 134 129 131 137 155 177 187 211 243 262 271 275 279 279 276 272 269 266 264 265 268 270 271 273
132 185 65 127 156 176 220 253 223 180 164 169 141 91 79 72 65 61 60 65 69 75 83 84 87 89 90 98 97 94 127 291 297 296 294 292 293 294 294 294 291 288 284 278 273 268 267 268 271
222 198 160 157 216 241 161 253 318 149 152 152 129 97 82 85 81 76 76 79 80 80 90 87 75 66 61 58 26 320 296 286 286 288 291 292 294 294 293 291 291 290 287 285 280 276 271 269 268